Location: Castro Valley
(37.6940°N, 122.0850°W)
Time: 03:42:41
(UTC-07:00)

PANSAT - Visible Passes

Search period start: 29 July 2014 00:00
Search period end: 08 August 2014 00:00
Orbit: 492 x 497 km, 28.5° (Epoch: 28 July)

Date Brightness Start Highest point End Pass type
(mag) Time Alt. Az. Time Alt. Az. Time Alt. Az.
29 Jul 10.1 04:23:50 10° SSE 04:23:50 10° SSE 04:24:02 10° SSE visible
30 Jul 9.3 05:35:05 10° SW 05:37:55 20° S 05:40:46 10° SE visible
31 Jul 9.3 05:11:05 14° SSW 05:12:58 20° S 05:15:50 10° SE visible
01 Aug 9.1 04:47:32 20° S 04:48:01 20° S 04:50:54 10° SE visible
02 Aug 9.4 04:24:02 18° SSE 04:24:02 18° SSE 04:25:58 10° SE visible
03 Aug 10.1 04:00:36 12° SE 04:00:36 12° SE 04:01:01 10° SE visible
03 Aug 9.4 05:35:08 10° SW 05:37:43 17° S 05:40:17 10° SSE visible
04 Aug 9.3 05:11:44 15° SSW 05:12:44 17° S 05:15:16 10° SSE visible
05 Aug 9.5 04:48:33 15° S 04:48:33 15° S 04:50:13 10° SSE visible
